Kiana, AK

12:55 PM AKST on November 21, 2017 (GMT -0900)
Baker Memorial

Weather History for PAIK - March, 2013

Change the Weather History Date:

Tuesday, March 5, 2013

  Actual Average (PASK) Record (PASK)
Temperature  
Mean Temperature 26 °F -  
Max Temperature 26 °F 3 °F 28 °F (2008)
Min Temperature 23 °F -5 °F -36 °F (2007)
Degree Days  
Heating Degree Days 40    
Moisture  
Dew Point 22 °F    
Average Humidity 85    
Maximum Humidity 96    
Minimum Humidity 66    
Precipitation  
Precipitation 0.00 in - - ()
Sea Level Pressure  
Sea Level Pressure 30.09 in    
Wind  
Wind Speed 15 mph (East)    
Max Wind Speed 20 mph    
Max Gust Speed 28 mph    
Visibility 6 miles    
Events Snow    
Averages and records for this station are not official NWS values.
T = Trace of Precipitation, MM = Missing Value Source: NWS Daily Summary

Daily Weather History Graph

Daily Weather History Graph

Search for Another Location

Airport or City:

Trip Planner

Search our weather history database for the weather conditions in past years. The results will help you decide how hot, cold, wet, or windy it might be!

Date:

Astronomy

Mar. 05, 2013 Rise Set
Actual Time 8:39 AM AKST 7:08 PM AKST
Civil Twilight 7:46 AM AKST 8:01 PM AKST
Nautical Twilight 6:44 AM AKST 9:03 PM AKST
Astronomical Twilight 5:38 AM AKST 10:10 PM AKST
Moon 6:31 AM AKST (3/5) 10:32 AM AKST (3/5)
Length of Visible Light 12h 15m
Length of Day
10h 28m
Last Quarter, 39% of the Moon is Illuminated
Mar 5
Last Quarter
Mar 11
New
Mar 19
First Quarter
Mar 27
Full
Apr 2
Last Quarter

Hourly Weather History & Observations

Time (AKST) Temp. Windchill Dew Point Humidity Pressure Visibility Wind Dir Wind Speed Gust Speed Precip Events Conditions
12:01 AM 23.0 °F 10.1 °F 21.9 °F 96% 30.27 in 2.0 mi East 15.0 mph 25.3 mph 0.00 in Snow Light Snow
12:19 AM 23.0 °F 9.2 °F 21.2 °F 93% 30.13 in 3.0 mi East 17.3 mph 23.0 mph 0.00 in Snow Light Snow
12:31 AM 24.8 °F 11.9 °F 21.2 °F 86% 30.13 in 3.0 mi East 16.1 mph 25.3 mph 0.00 in Snow Light Snow
1:01 AM 24.1 °F 11.0 °F 21.9 °F 91% 30.26 in 3.0 mi East 16.1 mph 23.0 mph 0.00 in Snow Light Snow
1:16 AM 23.0 °F 9.6 °F 21.2 °F 93% 30.13 in 7.0 mi East 16.1 mph 21.9 mph 0.00 in Snow Light Snow
1:38 AM 23.0 °F 13.9 °F 21.2 °F 93% 30.13 in 8.0 mi ESE 8.1 mph 19.6 mph 0.00 in Snow Light Snow
2:01 AM 24.8 °F 13.4 °F 21.2 °F 86% 30.12 in 9.0 mi East 12.7 mph 17.3 mph 0.00 in Snow Light Snow
2:07 AM 24.1 °F 12.5 °F 21.9 °F 91% 30.25 in 9.0 mi East 12.7 mph 23.0 mph 0.00 in Snow Light Snow
2:25 AM 24.8 °F 10.7 °F 21.2 °F 86% 30.10 in 5.0 mi East 19.6 mph 26.5 mph 0.00 in Snow Light Snow
3:01 AM 25.0 °F 12.2 °F 23.0 °F 92% 30.23 in 6.0 mi East 16.1 mph 23.0 mph 0.00 in Snow Light Snow
4:01 AM 25.0 °F 11.7 °F 21.9 °F 88% 30.20 in 9.0 mi East 17.3 mph 25.3 mph 0.00 in Snow Light Snow
5:01 AM 25.0 °F 11.3 °F 21.9 °F 88% 30.18 in 9.0 mi East 18.4 mph 26.5 mph 0.00 in Snow Light Snow
6:01 AM 25.0 °F 12.2 °F 21.9 °F 88% 30.18 in 10.0 mi East 16.1 mph 25.3 mph 0.00 in   Overcast
7:01 AM 26.1 °F 14.5 °F 21.9 °F 84% 30.17 in 9.0 mi East 13.8 mph 21.9 mph 0.00 in Snow Light Snow
8:01 AM 26.1 °F 13.1 °F 23.0 °F 88% 30.16 in 6.0 mi East 17.3 mph 25.3 mph 0.00 in Snow Light Snow
9:01 AM 26.1 °F 13.6 °F 23.0 °F 88% 30.14 in 4.0 mi East 16.1 mph 25.3 mph 0.00 in Snow Light Snow
9:12 AM 26.6 °F 14.3 °F 23.0 °F 86% 30.01 in 2.5 mi East 16.1 mph 24.2 mph 0.00 in Snow Light Snow
9:24 AM 26.6 °F 14.7 °F 23.0 °F 86% 30.01 in 3.0 mi East 15.0 mph 26.5 mph 0.00 in Snow Light Snow
10:01 AM 25.0 °F 11.3 °F 23.0 °F 92% 30.14 in 3.0 mi East 18.4 mph 27.6 mph 0.00 in Snow Light Snow
10:12 AM 24.8 °F 11.9 °F 23.0 °F 93% 30.01 in 3.0 mi East 16.1 mph 25.3 mph 0.00 in Snow Light Snow
10:14 AM 24.8 °F 11.9 °F 23.0 °F 93% 30.01 in 2.5 mi East 16.1 mph 21.9 mph 0.00 in Snow Light Snow
10:24 AM 24.8 °F 12.9 °F 23.0 °F 93% 30.01 in 2.5 mi East 13.8 mph 23.0 mph 0.00 in Snow Light Snow
10:32 AM 24.8 °F 12.9 °F 23.0 °F 93% 30.01 in 3.0 mi East 13.8 mph 24.2 mph 0.00 in Snow Light Snow
10:44 AM 24.8 °F 11.9 °F 23.0 °F 93% 30.01 in 2.5 mi East 16.1 mph 21.9 mph 0.00 in Snow Light Snow
11:01 AM 25.0 °F 12.6 °F 23.0 °F 92% 30.14 in 2.5 mi East 15.0 mph 20.7 mph 0.00 in Snow Light Snow
11:32 AM 26.6 °F 15.2 °F 23.0 °F 86% 30.00 in 3.0 mi East 13.8 mph 21.9 mph 0.00 in Snow Light Snow
12:01 PM 26.6 °F 15.2 °F 23.0 °F 86% 30.00 in 4.0 mi East 13.8 mph 24.2 mph 0.00 in Snow Light Snow
12:37 PM 26.6 °F 15.7 °F 23.0 °F 86% 29.99 in 8.0 mi East 12.7 mph 20.7 mph 0.00 in Snow Light Snow
12:46 PM 26.6 °F 15.7 °F 23.0 °F 86% 29.99 in 9.0 mi ESE 12.7 mph 21.9 mph 0.00 in Snow Light Snow
1:01 PM 27.0 °F 15.2 °F 23.0 °F 85% 30.13 in 9.0 mi East 15.0 mph 23.0 mph 0.00 in Snow Light Snow
2:01 PM 28.9 °F 17.3 °F 23.0 °F 78% 30.11 in 10.0 mi East 16.1 mph 21.9 mph 0.00 in Snow Light Snow
3:01 PM 28.9 °F 17.7 °F 23.0 °F 78% 30.09 in 10.0 mi East 15.0 mph 23.0 mph 0.00 in   Scattered Clouds
4:01 PM 28.9 °F 17.3 °F 23.0 °F 78% 30.07 in 9.0 mi East 16.1 mph 23.0 mph 0.00 in Snow Light Snow
5:01 PM 28.9 °F 19.2 °F 23.0 °F 78% 30.05 in 9.0 mi East 11.5 mph - 0.00 in Snow Light Snow
6:01 PM 28.0 °F 19.3 °F 21.0 °F 75% 30.04 in 10.0 mi East 9.2 mph - 0.00 in   Clear
7:01 PM 28.9 °F 18.6 °F 21.0 °F 72% 30.02 in 10.0 mi East 12.7 mph 19.6 mph N/A   Clear
8:01 PM 28.9 °F 19.8 °F 19.9 °F 69% 30.02 in 10.0 mi East 10.4 mph 19.6 mph N/A   Partly Cloudy
9:01 PM 28.0 °F 16.5 °F 19.0 °F 69% 30.00 in 10.0 mi ESE 15.0 mph 20.7 mph N/A   Clear
10:01 PM 27.0 °F 16.7 °F 17.1 °F 66% 30.01 in 10.0 mi ESE 11.5 mph 19.6 mph N/A   Overcast
11:01 PM 27.0 °F 16.7 °F 17.1 °F 66% 29.99 in 10.0 mi ESE 11.5 mph - N/A   Overcast